Powrót do katalogu

STARLINK-31353

AktywnyŁącznośćVLEO
NORAD 58980·PAYLOAD·🇺🇸 United States

Wystrzelony Feb 15, 2024 z Vandenberg Space Force Base

Loading…

Następne Przeloty (najbliższe 24 godziny)

TLE

ŚwieżeSource: CelesTrak SupGP

Epoka: Sep 14, 2026, 14:25 UTC

1 58980C 24031R   26257.60118056  .00054812  00000+0  16197-2 0  2571
2 58980  53.1574 137.1943 0001242  86.7865 320.1661 15.34357988    17

Śledź STARLINK-31353 w czasie rzeczywistym z AllMySat

Download on the App Store